Location: Bazinghen
(50.8246°N, 1.6616°E)
Time: 07:57:02
(UTC+00:00)

STARLINK-1254 - Visible Passes

Search period start: 11 August 2020 00:00
Search period end: 21 August 2020 00:00
Orbit: 548 x 551 km, 53.0° (Epoch: 11 August)

Date Brightness Start Highest point End Pass type
(mag) Time Alt. Az. Time Alt. Az. Time Alt. Az.
11 Aug 3.7 20:34:50 10° WNW 20:39:00 76° NNE 20:42:40 13° E visible
11 Aug 4.2 22:14:31 10° WNW 22:18:17 41° SW 22:18:17 41° SW visible
12 Aug 3.6 20:29:20 10° WNW 20:33:30 84° NNE 20:37:03 14° ESE visible
12 Aug 4.6 22:09:06 10° W 22:12:40 33° SW 22:12:40 33° SW visible
13 Aug 3.6 20:23:50 10° WNW 20:28:01 86° SSW 20:31:27 15° ESE visible
13 Aug 4.9 22:03:43 10° W 22:07:05 27° SW 22:07:05 27° SW visible
14 Aug 3.6 20:18:20 10° WNW 20:22:29 75° SSW 20:25:54 15° ESE visible
14 Aug 5.2 21:58:24 10° W 22:01:32 22° SW 22:01:32 22° SW visible
15 Aug 3.8 20:12:50 10° WNW 20:16:57 64° SSW 20:20:23 14° SE visible
15 Aug 5.6 21:53:12 10° W 21:55:55 17° SW 21:56:01 17° SW visible
16 Aug 4.1 20:07:20 10° WNW 20:11:23 53° SSW 20:14:55 13° SE visible
16 Aug 5.9 21:48:12 10° WSW 21:50:14 13° SW 21:50:34 13° SW visible
17 Aug 4.4 20:01:51 10° WNW 20:05:47 43° SSW 20:09:30 11° SE visible
17 Aug 6.1 21:44:15 10° SW 21:44:30 10° SW 21:44:45 10° SW visible
18 Aug 4.8 19:56:23 10° WNW 20:00:11 35° SW 20:03:57 10° SSE visible
19 Aug 5.1 19:50:58 10° W 19:54:32 28° SW 19:58:05 10° SSE visible
20 Aug 5.5 19:45:35 10° W 19:48:51 23° SW 19:52:07 10° S visible
